ZL1UTH Weather Reports


time (UTC)temp
C
wind
direction
speed
KPH
gust
KPH
rain 1hr
cm
rain 24hr
cm
rain mn
cm
humidity
%
barometer
mb
20260505041504 19 0 0.0 0.0 0.00 0.00 0.00 59 1040.1
20260505041204 19 0 0.0 0.0 0.00 0.00 0.00 58 1040.0
20260505040904 19 0 0.0 0.0 0.00 0.00 0.00 58 1040.0
20260505040604 19 0 0.0 0.0 0.00 0.00 0.00 57 1040.1
20260505040004 19 0 0.0 0.0 0.00 0.00 0.00 57 1040.0
20260505035704 19 0 0.0 0.0 0.00 0.00 0.00 59 1040.1
20260505035404 19 0 0.0 0.0 0.00 0.00 0.00 60 1040.0
20260505035104 19 0 0.0 0.0 0.00 0.00 0.00 60 1040.1
20260505034803 18 0 0.0 0.0 0.00 0.00 0.00 59 1040.0
20260505034504 18 0 0.0 0.0 0.00 0.00 0.00 59 1040.0
20260505034206 19 0 0.0 0.0 0.00 0.00 0.00 58 1040.1
20260505033904 19 0 0.0 0.0 0.00 0.00 0.00 58 1040.1
20260505033603 19 0 0.0 0.0 0.00 0.00 0.00 58 1040.1
20260505033003 19 0 0.0 0.0 0.00 0.00 0.00 57 1040.1
20260505032704 19 0 0.0 0.0 0.00 0.00 0.00 57 1040.0
20260505032404 19 0 0.0 0.0 0.00 0.00 0.00 57 1039.9
20260505032104 19 0 0.0 0.0 0.00 0.00 0.00 58 1040.0
20260505031803 19 0 0.0 0.0 0.00 0.00 0.00 58 1039.9
20260505031504 19 0 0.0 0.0 0.00 0.00 0.00 58 1040.1
20260505031204 18 0 0.0 0.0 0.00 0.00 0.00 58 1040.0
20260505030303 19 45 0.0 1.6 0.00 0.00 0.00 56 1040.0
20260505030004 19 45 0.0 1.6 0.00 0.00 0.00 55 1040.1
20260505025404 20 0 0.0 0.0 0.00 0.00 0.00 54 1040.1
20260505025104 20 181 0.0 3.2 0.00 0.00 0.00 54 1040.2
20260505024803 20 181 0.0 3.2 0.00 0.00 0.00 54 1040.2
20260505024504 20 181 0.0 3.2 0.00 0.00 0.00 54 1040.2
20260505024204 20 0 0.0 0.0 0.00 0.00 0.00 55 1040.2
20260505023904 20 0 0.0 0.0 0.00 0.00 0.00 55 1040.2
20260505023603 20 0 0.0 0.0 0.00 0.00 0.00 55 1040.2
20260505023310 20 0 0.0 0.0 0.00 0.00 0.00 57 1040.2
20260505023004 19 0 0.0 0.0 0.00 0.00 0.00 55 1040.3
20260505022404 20 0 0.0 0.0 0.00 0.00 0.00 53 1040.3
20260505022103 20 0 0.0 0.0 0.00 0.00 0.00 52 1040.3
20260505021804 21 0 0.0 0.0 0.00 0.00 0.00 50 1040.4
20260505021503 21 0 0.0 0.0 0.00 0.00 0.00 50 1040.2
20260505021203 21 0 0.0 0.0 0.00 0.00 0.00 50 1040.3
20260505020904 22 225 0.0 1.6 0.00 0.00 0.00 48 1040.4
20260505020603 22 225 0.0 1.6 0.00 0.00 0.00 49 1040.2
20260505020304 22 225 0.0 1.6 0.00 0.00 0.00 49 1040.3
20260505020004 22 225 0.0 1.6 0.00 0.00 0.00 49 1040.2
20260505015703 22 0 0.0 0.0 0.00 0.00 0.00 50 1040.3
20260505015404 21 0 0.0 0.0 0.00 0.00 0.00 51 1040.3
20260505015104 21 0 0.0 0.0 0.00 0.00 0.00 51 1040.4
20260505014803 20 0 0.0 0.0 0.00 0.00 0.00 54 1040.3
20260505014504 20 0 0.0 0.0 0.00 0.00 0.00 53 1040.3
20260505014203 20 0 0.0 0.0 0.00 0.00 0.00 53 1040.5
20260505013905 20 0 0.0 0.0 0.00 0.00 0.00 53 1040.4
20260505013303 20 0 0.0 0.0 0.00 0.00 0.00 53 1040.6
20260505013005 20 0 0.0 0.0 0.00 0.00 0.00 54 1040.5
20260505012704 20 0 0.0 0.0 0.00 0.00 0.00 54 1040.5
20260505012406 20 0 0.0 0.0 0.00 0.00 0.00 54 1040.7
20260505012103 20 0 0.0 0.0 0.00 0.00 0.00 54 1040.7
20260505011804 20 0 0.0 0.0 0.00 0.00 0.00 55 1040.8
20260505011504 20 0 0.0 0.0 0.00 0.00 0.00 55 1040.8
20260505011205 20 0 0.0 0.0 0.00 0.00 0.00 55 1040.8
20260505010903 20 0 0.0 0.0 0.00 0.00 0.00 55 1040.8
20260505010604 20 292 0.0 1.6 0.00 0.00 0.00 57 1041.0
20260505010303 20 292 0.0 1.6 0.00 0.00 0.00 57 1041.1
20260505010004 19 292 0.0 1.6 0.00 0.00 0.00 57 1041.1
20260505005704 19 0 0.0 0.0 0.00 0.00 0.00 57 1041.1
20260505005404 19 0 0.0 0.0 0.00 0.00 0.00 57 1041.2
20260505004804 19 0 0.0 0.0 0.00 0.00 0.00 57 1041.1
20260505004204 19 225 0.0 1.6 0.00 0.00 0.00 57 1041.3
20260505003903 19 225 0.0 1.6 0.00 0.00 0.00 57 1041.4
20260505003304 19 0 0.0 0.0 0.00 0.00 0.00 56 1041.4
20260505003004 20 0 0.0 0.0 0.00 0.00 0.00 55 1041.3
20260505002704 20 0 0.0 0.0 0.00 0.00 0.00 56 1041.6
20260505002404 19 0 0.0 0.0 0.00 0.00 0.00 57 1041.7
20260505002103 19 0 0.0 0.0 0.00 0.00 0.00 56 1041.7
20260505001804 19 0 0.0 0.0 0.00 0.00 0.00 57 1041.8
20260505001503 19 270 0.0 1.6 0.00 0.00 0.00 56 1041.8
20260505001203 19 270 0.0 1.6 0.00 0.00 0.00 56 1041.9
20260505000904 19 270 0.0 1.6 0.00 0.00 0.00 56 1041.9
20260505000303 19 0 0.0 0.0 0.00 0.00 0.00 56 1042.0
20260505000003 19 0 0.0 0.0 0.00 0.00 0.00 55 1042.1
20260504235706 19 0 0.0 0.0 0.00 0.00 0.00 55 1042.1
20260504235404 20 0 0.0 0.0 0.00 0.00 0.00 55 1042.0
20260504235103 19 0 0.0 0.0 0.00 0.00 0.00 54 1042.1
20260504234804 20 0 0.0 0.0 0.00 0.00 0.00 56 1042.1
20260504234504 19 0 0.0 0.0 0.00 0.00 0.00 57 1042.2
20260504233903 18 0 0.0 0.0 0.00 0.00 0.00 56 1042.1
20260504233606 18 0 0.0 0.0 0.00 0.00 0.00 57 1042.2
20260504233304 18 0 0.0 0.0 0.00 0.00 0.00 57 1042.2
20260504233004 18 0 0.0 0.0 0.00 0.00 0.00 59 1042.4
20260504232707 18 0 0.0 0.0 0.00 0.00 0.00 59 1042.4
20260504232403 17 0 0.0 0.0 0.00 0.00 0.00 59 1042.4
20260504232104 18 0 0.0 0.0 0.00 0.00 0.00 59 1042.4
20260504231803 17 296 0.0 1.6 0.00 0.00 0.00 58 1042.5
20260504231504 18 257 0.0 1.6 0.00 0.00 0.00 57 1042.3
20260504231205 18 259 0.0 1.6 0.00 0.00 0.00 58 1042.5
20260504230904 18 206 0.0 1.6 0.00 0.00 0.00 56 1042.6
20260504230603 18 233 0.0 3.2 0.00 0.00 0.00 54 1042.5
20260504230304 19 221 0.0 3.2 0.00 0.00 0.00 54 1042.6
20260504225704 19 221 0.0 6.4 0.00 0.00 0.00 54 1042.5
20260504225403 20 211 0.0 6.4 0.00 0.00 0.00 53 1042.4
20260504224803 19 209 0.0 3.2 0.00 0.00 0.00 59 1042.7
20260504224503 18 225 0.0 3.2 0.00 0.00 0.00 62 1042.6
20260504224205 17 243 0.0 4.8 0.00 0.00 0.00 62 1042.7
20260504223605 17 260 1.6 4.8 0.00 0.00 0.00 62 1042.8
20260504223303 17 262 3.2 4.8 0.00 0.00 0.00 65 1042.8
20260504223004 16 271 0.0 3.2 0.00 0.00 0.00 69 1042.8
20260504222703 16 289 0.0 3.2 0.00 0.00 0.00 68 1042.8
20260504222104 15 264 3.2 3.2 0.00 0.00 0.00 71 1042.8
20260504221803 15 243 1.6 4.8 0.00 0.00 0.00 72 1043.0
20260504221504 15 236 1.6 4.8 0.00 0.00 0.00 72 1042.9
20260504221203 14 245 0.0 4.8 0.00 0.00 0.00 75 1042.9
20260504220605 13 275 1.6 4.8 0.00 0.00 0.00 80 1043.0
20260504220304 13 300 1.6 4.8 0.00 0.00 0.00 82 1043.1
20260504220004 13 309 1.6 4.8 0.00 0.00 0.00 84 1042.9
20260504215704 13 306 3.2 4.8 0.00 0.00 0.00 89 1043.3
20260504214804 13 248 1.6 3.2 0.00 0.00 0.00 98 1043.1
20260504214503 12 271 0.0 3.2 0.00 0.00 0.00 97 1043.1
20260504214203 12 274 0.0 3.2 0.00 0.00 0.00 97 1043.0
20260504213904 11 267 0.0 3.2 0.00 0.00 0.00 98 1043.3
20260504213603 11 257 0.0 4.8 0.00 0.00 0.00 98 1043.0
20260504213003 10 246 1.6 4.8 0.00 0.00 0.00 99 1043.1
20260504212403 9 235 3.2 4.8 0.00 0.00 0.00 99 1043.3
20260504212104 9 210 1.6 3.2 0.00 0.00 0.00 99 1043.0
20260504211503 8 237 0.0 3.2 0.00 0.00 0.00 99 1043.3
20260504211204 8 252 0.0 3.2 0.00 0.00 0.00 99 1043.4
20260504210904 8 259 0.0 3.2 0.00 0.00 0.00 99 1043.4
20260504210604 8 267 3.2 3.2 0.00 0.00 0.00 99 1043.3
20260504210303 8 0 0.0 0.0 0.00 0.00 0.00 99 1043.3
20260504210004 8 0 0.0 0.0 0.00 0.00 0.00 99 1043.2
20260504205704 7 0 0.0 0.0 0.00 0.00 0.00 97 1043.3
20260504205404 7 0 0.0 0.0 0.00 0.00 0.00 97 1043.3
20260504205104 7 0 0.0 0.0 0.00 0.00 0.00 97 1043.4
20260504204803 6 0 0.0 0.0 0.00 0.00 0.00 98 1043.3
20260504204504 6 0 0.0 0.0 0.00 0.00 0.00 98 1043.3
20260504204204 6 0 0.0 0.0 0.00 0.00 0.00 98 1043.4
20260504203904 6 0 0.0 0.0 0.00 0.00 0.00 98 1043.4
20260504203603 6 0 0.0 0.0 0.00 0.00 0.00 98 1043.4
20260504203303 6 0 0.0 0.0 0.00 0.00 0.00 98 1043.4
20260504203004 6 0 0.0 0.0 0.00 0.00 0.00 98 1043.6
20260504202704 6 0 0.0 0.0 0.00 0.00 0.00 98 1043.4
20260504202403 6 0 0.0 0.0 0.00 0.00 0.00 98 1043.5
20260504202104 6 0 0.0 0.0 0.00 0.00 0.00 98 1043.5
20260504201803 6 0 0.0 0.0 0.00 0.00 0.00 99 1043.4
20260504201504 6 0 0.0 0.0 0.00 0.00 0.00 99 1043.5
20260504201206 6 0 0.0 0.0 0.00 0.00 0.00 99 1043.5
20260504200904 5 0 0.0 0.0 0.00 0.00 0.00 99 1043.5
20260504200604 5 0 0.0 0.0 0.00 0.00 0.00 99 1043.5
20260504200303 5 0 0.0 0.0 0.00 0.00 0.00 99 1043.5
20260504200004 5 0 0.0 0.0 0.00 0.00 0.00 99 1043.5
20260504195704 5 0 0.0 0.0 0.00 0.00 0.00 99 1043.3
20260504195404 5 0 0.0 0.0 0.00 0.00 0.00 99 1043.4
20260504195104 5 0 0.0 0.0 0.00 0.00 0.00 99 1043.4
20260504194803 5 0 0.0 0.0 0.00 0.00 0.00 99 1043.3
20260504194504 5 0 0.0 0.0 0.00 0.00 0.00 99 1043.3
20260504194204 5 0 0.0 0.0 0.00 0.00 0.00 99 1043.3
20260504193903 5 0 0.0 0.0 0.00 0.00 0.00 99 1043.4
20260504193304 5 0 0.0 0.0 0.00 0.00 0.00 99 1043.3
20260504192704 5 0 0.0 0.0 0.00 0.00 0.00 99 1043.3
20260504192104 5 0 0.0 0.0 0.00 0.00 0.00 99 1043.3
20260504191803 5 0 0.0 0.0 0.00 0.00 0.00 99 1043.3
20260504191505 5 0 0.0 0.0 0.00 0.00 0.00 99 1043.4
20260504191204 5 0 0.0 0.0 0.00 0.00 0.00 99 1043.3
20260504190904 5 0 0.0 0.0 0.00 0.00 0.00 99 1043.2
20260504190603 5 0 0.0 0.0 0.00 0.00 0.00 99 1043.3
20260504190304 5 0 0.0 0.0 0.00 0.00 0.00 99 1043.1
20260504190004 5 0 0.0 0.0 0.00 0.00 0.00 99 1043.2
20260504185406 6 0 0.0 0.0 0.00 0.00 0.00 99 1043.1
20260504185104 6 0 0.0 0.0 0.00 0.00 0.00 99 1043.1
20260504184803 6 0 0.0 0.0 0.00 0.00 0.00 98 1043.0
20260504184504 6 0 0.0 0.0 0.00 0.00 0.00 98 1043.0
20260504184207 6 0 0.0 0.0 0.00 0.00 0.00 98 1043.0
20260504183904 6 0 0.0 0.0 0.00 0.00 0.00 98 1043.1
20260504183606 6 0 0.0 0.0 0.00 0.00 0.00 98 1043.1
20260504183303 6 0 0.0 0.0 0.00 0.00 0.00 98 1043.3
20260504183004 6 0 0.0 0.0 0.00 0.00 0.00 98 1043.3
20260504182704 6 0 0.0 0.0 0.00 0.00 0.00 98 1043.3
20260504182403 6 0 0.0 0.0 0.00 0.00 0.00 98 1043.2
20260504182106 6 0 0.0 0.0 0.00 0.00 0.00 98 1043.2
20260504181803 6 0 0.0 0.0 0.00 0.00 0.00 98 1043.3
20260504181504 6 0 0.0 0.0 0.00 0.00 0.00 98 1043.2
20260504181203 6 0 0.0 0.0 0.00 0.00 0.00 98 1043.3
20260504180605 6 0 0.0 0.0 0.00 0.00 0.00 98 1043.0
20260504180005 6 0 0.0 0.0 0.00 0.00 0.00 98 1043.2
20260504175705 6 0 0.0 0.0 0.00 0.00 0.00 98 1043.2
20260504175404 6 0 0.0 0.0 0.00 0.00 0.00 98 1043.2
20260504175104 6 0 0.0 0.0 0.00 0.00 0.00 98 1043.3
20260504174804 6 0 0.0 0.0 0.00 0.00 0.00 98 1043.3
20260504174504 6 0 0.0 0.0 0.00 0.00 0.00 98 1043.2
20260504174204 6 0 0.0 0.0 0.00 0.00 0.00 98 1043.0
20260504173603 6 0 0.0 0.0 0.00 0.00 0.00 98 1043.2
20260504173304 6 0 0.0 0.0 0.00 0.00 0.00 98 1043.2
20260504173006 6 0 0.0 0.0 0.00 0.00 0.00 98 1043.2
20260504172704 6 0 0.0 0.0 0.00 0.00 0.00 98 1043.2
20260504172104 6 0 0.0 0.0 0.00 0.00 0.00 98 1043.2
20260504171803 6 0 0.0 0.0 0.00 0.00 0.00 98 1043.2
20260504171205 6 0 0.0 0.0 0.00 0.00 0.00 98 1043.2
20260504170904 6 0 0.0 0.0 0.00 0.00 0.00 98 1043.2
20260504170604 6 0 0.0 0.0 0.00 0.00 0.00 98 1043.1
20260504150603 7 0 0.0 0.0 0.00 0.00 0.00 97 1043.6
20260504150305 7 0 0.0 0.0 0.00 0.00 0.00 97 1043.7
20260504141204 10 343 0.0 4.8 0.00 0.00 0.00 98 1044.3
20260504140904 10 323 0.0 1.6 0.00 0.00 0.00 98 1044.4
20260504140604 10 348 0.0 1.6 0.00 0.00 0.00 98 1044.4
20260504140303 10 1 0.0 1.6 0.00 0.00 0.00 98 1044.5
20260504130603 10 270 0.0 3.2 0.00 0.00 0.00 98 1044.3
20260504130305 10 233 0.0 3.2 0.00 0.00 0.00 98 1044.4
20260504120304 9 135 0.0 3.2 0.00 0.00 0.00 97 1044.0
20260504110604 9 343 0.0 3.2 0.00 0.00 0.00 97 1044.2
20260504110304 9 332 0.0 3.2 0.00 0.00 0.00 97 1044.1
20260504100604 8 354 0.0 3.2 0.00 0.00 0.00 96 1044.5
20260504100304 8 347 0.0 3.2 0.00 0.00 0.00 97 1044.4
20260504081804 10 174 0.0 3.2 0.00 0.00 0.00 95 1043.9
20260504081503 10 163 1.6 3.2 0.00 0.00 0.00 95 1043.7
20260504081204 9 213 3.2 3.2 0.00 0.00 0.00 95 1043.7
20260504080903 9 270 0.0 1.6 0.00 0.00 0.00 95 1043.8
20260504080604 9 293 0.0 3.2 0.00 0.00 0.00 95 1043.7
20260504080304 9 289 0.0 3.2 0.00 0.00 0.00 95 1043.7
20260504070304 8 0 0.0 0.0 0.00 0.00 0.00 93 1043.4
20260504050603 15 0 0.0 0.0 0.00 0.00 0.00 69 1042.1
20260504050303 15 0 0.0 0.0 0.00 0.00 0.00 69 1042.1
20260504050004 15 0 0.0 0.0 0.00 0.00 0.00 68 1042.0
20260504045404 16 0 0.0 0.0 0.00 0.00 0.00 64 1042.1